Regional Weather Roundup
Issued by NWS Sterling, VA

Home | Current Version | Previous Version | Graphics & Text | Print | Product List | Glossary On
Versions: 1 2 3 4 5 6 7 8 9 10 11 12 13 14 15 16 17 18 19 20 21 22 23 24 25 26 27
000
ASUS41 KLWX 270211
RWRLWX

REGIONAL WEATHER ROUNDUP
NATIONAL WEATHER SERVICE BALTIMORE MD/WASHINGTON DC
1000 PM EDT MON JUN 26 2017

Note: "FAIR" indicates few or no clouds below 12,000 feet
with no significant weather and/or obstructions to visibility.
 TC=TEMPERATURE CELSIUS

 * =Non NWS site. Station does not report precipitation (e.g. rain,
    snow, etc.), thunder, or fog.

DCZ001-MDZ009-015-VAZ040>042-051-053>054-270300-
WASHINGTON METRO

CITY           SKY/WX    TMP DP  RH WIND       PRES   REMARKS
WASHINGTON NAT MOCLDY    76  58  53 S13       29.99R
DULLES         MOCLDY    74  51  44 S5        29.99R
ANDREWS AFB    MOCLDY    67  56  65 S9        29.99R
FT BELVOIR     CLOUDY    72  59  63 SE6       29.99R
QUANTICO       CLEAR     77  55  46 S6        29.99S
COLLEGE PARK*  PTCLDY    70  55  57 CALM      29.99R
LEESBURG*      CLOUDY    72  59  64 CALM      30.01R
MANASSAS*      PTCLDY    70  56  61 S5        30.00R
GAITHERSBURG*  MOCLDY    72  52  49 S5        30.01R

$$

MDZ006>007-011-014-270300-
BALTIMORE METRO

CITY           SKY/WX    TMP DP  RH WIND       PRES   REMARKS
BWI AIRPORT    MOCLDY    73  56  54 SE3       29.98S
MD SCIENCE CTR   N/A     78  55  44 MISG      29.98F
MARTIN STATE   PTCLDY    75  57  53 S6        30.00R
ANNAPOLIS      CLEAR     72  62  71 S8        29.98F
FORT MEADE*    PTCLDY    64  59  82 SE3       30.01S

$$

MDZ012-015-019>023-270300-
MARYLAND EASTERN SHORE

CITY           SKY/WX    TMP DP  RH WIND       PRES   REMARKS
OCEAN CITY     PTCLDY    72  60  66 SW8       30.03R
SALISBURY      MOCLDY    68  58  70 S6        30.02R
BAY BRIDGE AP* CLEAR     75  59  57 S6        29.99S
CAMBRIDGE*     CLEAR     68  59  73 CALM      30.01R
EASTON*        CLEAR     71  55  57 S5        30.04S

$$

MDZ017>025-270300-
SOUTHERN MARYLAND

CITY           SKY/WX    TMP DP  RH WIND       PRES   REMARKS
PATUXENT RIVER PTCLDY    73  61  65 S7        30.00S
ST INIGOES     CLEAR     76  60  57 S8        29.99S
LEONARDTOWN*   CLEAR     68  59  73 CALM      30.02S

$$

MDZ003>005-270300-
NORTH CENTRAL MARYLAND

CITY           SKY/WX    TMP DP  RH WIND       PRES   REMARKS
FREDERICK*     MOCLDY    70  54  56 E3        30.02R
HAGERSTOWN APT PTCLDY    71  50  47 NW3       30.01R
WESTMINSTER*   PTCLDY    72  52  49 S3        30.00R

$$

MDZ501>502-270300-
WESTERN MARYLAND

CITY           SKY/WX    TMP DP  RH WIND       PRES   REMARKS
OAKLAND*       NOT AVBL
CUMBERLAND*    CLEAR     70  45  40 W6        30.07R

$$

VAZ025>031-270300-
SHENANDOAH VALLEY

CITY           SKY/WX    TMP DP  RH WIND       PRES   REMARKS
WINCHESTER*    PTCLDY    64  46  52 NW6       30.02R
FRONT ROYAL*   CLOUDY    70  50  49 CALM      30.01R
LURAY*         CLEAR     68  50  52 NE7       30.02R
NEW MARKET*    CLEAR     61  49  66 CALM      30.03R
STAUNTON*      CLEAR     64  48  56 W3        30.06R
WAYNESBORO*    CLEAR     63  52  67 SW5       30.06R

$$

WVZ021-048>050-054>055-270300-
EASTERN WEST VIRGINIA PANHANDLE

CITY           SKY/WX    TMP DP  RH WIND       PRES   REMARKS
MARTINSBURG    MOCLDY    71  47  42 NW7       30.01R
PETERSBURG*    CLEAR     67  49  52 CALM      30.06R

$$

VAZ036>039-050-270300-
CENTRAL FOOTHILLS

CITY           SKY/WX    TMP DP  RH WIND       PRES   REMARKS
CHARLOTTESVILL CLEAR     72  54  53 CALM      30.01R
CULPEPER*      PTCLDY    66  59  79 CALM      30.01R
ORANGE*        CLEAR     63  55  77 CALM      30.01R
GORDONSVILLE*  CLEAR     63  57  81 CALM      30.00R
WARRENTON*     CLEAR     66  53  64 CALM      29.99R

$$

VAZ055>057-270300-
NORTH AND CENTRAL PIEDMONT

CITY           SKY/WX    TMP DP  RH WIND       PRES   REMARKS
FREDERICKSBRG* CLEAR     68  58  68 CALM      29.99R
STAFFORD*      CLEAR     62  60  93 CALM      30.03S

$$

NCZ024-NYZ072-PAZ021-071-VAZ022-071-270300-
OTHER REGIONAL OBSERVATIONS

CITY           SKY/WX    TMP DP  RH WIND       PRES   REMARKS
NEW YORK CITY  CLEAR     74  46  36 CALM      30.00R
PHILADELPHIA   CLEAR     73  52  47 S5        30.00R
PITTSBURGH     CLOUDY    64  50  60 SW6       30.02S
ROANOKE        PTCLDY    68  51  54 NW8       30.08R
RICHMOND       PTCLDY    68  57  68 SW6       30.01R
RALEIGH        CLOUDY    71  61  70 CALM      30.04S

$$

ANZ530>537-270300-
MARINE OBSERVATIONS

STATION/POSITION TIME  TEMP    WIND        PRES
                       AIR SEA DIR/SP/G
                 (UTC) (F)     (DEG/KT/KT) (MB)
THOMAS PT LIGHT  0200   77 78  170/ 17/ 19   N/A
BALT KEY BRIDGE  0136   76     160/ 10/ 12 1014.9F
COVE POINT       0136   77     180/ 11/ 12 1016.5R
LEWISETTA        0136   75 80  200/  7/  9 1015.8R
SOLOMONS ISLAND  0136   76 80  170/  6/  7   N/A
PINEY POINT      0130          200/ 13/ 15   N/A

$$





USA.gov is the U.S. government's official web portal to all federal, state and local government web resources and services.